| time (UTC) | temp C | wind direction | speed KPH | gust KPH | rain 1hr cm | rain 24hr cm | rain mn cm | humidity % | barometer mb |
| 20260506140019 | 7 | 304 | 3.2 | 11.3 | 0.00 | 0.08 | 0.00 | 77 | 1009.6 |
| 20260506133017 | 4 | 352 | 1.6 | 9.7 | 0.00 | 0.08 | 0.00 | 85 | 1009.0 |
| 20260506130016 | 3 | 293 | 1.6 | 9.7 | 0.00 | 0.08 | 0.00 | 82 | 1008.4 |
| 20260506123016 | 3 | 342 | 1.6 | 9.7 | 0.00 | 0.08 | 0.00 | 83 | 1008.0 |
| 20260506120017 | 3 | 272 | 0.0 | 8.0 | 0.00 | 0.08 | 0.00 | 82 | 1007.6 |
| 20260506113016 | 3 | 228 | 1.6 | 8.0 | 0.00 | 0.08 | 0.00 | 84 | 1007.1 |
| 20260506110016 | 3 | 215 | 0.0 | 8.0 | 0.00 | 0.08 | 0.00 | 83 | 1006.6 |
| 20260506103018 | 4 | 10 | 1.6 | 8.0 | 0.00 | 0.08 | 0.00 | 84 | 1006.5 |
| 20260506100016 | 4 | 354 | 3.2 | 8.0 | 0.00 | 0.08 | 0.00 | 85 | 1006.3 |
| 20260506093016 | 5 | 349 | 1.6 | 6.4 | 0.00 | 0.08 | 0.00 | 83 | 1006.1 |
| 20260506090017 | 5 | 324 | 0.0 | 6.4 | 0.00 | 0.08 | 0.00 | 80 | 1006.0 |
| 20260506083017 | 7 | 290 | 0.0 | 9.7 | 0.00 | 0.08 | 0.00 | 77 | 1006.0 |
| 20260506073016 | 8 | 342 | 1.6 | 8.0 | 0.00 | 0.08 | 0.00 | 77 | 1006.0 |
| 20260506050157 | 13 | 10 | 9.7 | 20.9 | 0.00 | 0.08 | 0.08 | 62 | 1004.8 |
| 20260506043018 | 15 | 341 | 4.8 | 33.8 | 0.00 | 0.08 | 0.08 | 47 | 1004.1 |
| 20260506040056 | 16 | 232 | 11.3 | 33.8 | 0.00 | 0.08 | 0.08 | 42 | 1003.1 |
| 20260506033119 | 13 | 264 | 4.8 | 27.4 | 0.00 | 0.08 | 0.08 | 59 | 1002.4 |
| 20260506030017 | 13 | 148 | 1.6 | 17.7 | 0.00 | 0.08 | 0.08 | 65 | 1001.8 |
| 20260506023016 | 13 | 162 | 1.6 | 17.7 | 0.00 | 0.08 | 0.08 | 61 | 1001.5 |
| 20260506020016 | 15 | 300 | 1.6 | 9.7 | 0.00 | 0.08 | 0.08 | 58 | 1001.2 |
| 20260506013016 | 16 | 10 | 1.6 | 17.7 | 0.00 | 0.08 | 0.08 | 56 | 1000.4 |
| 20260506010015 | 16 | 6 | 8.0 | 19.3 | 0.00 | 0.08 | 0.08 | 57 | 1000.2 |
| 20260506003015 | 16 | 7 | 11.3 | 29.0 | 0.00 | 0.08 | 0.08 | 54 | 1000.1 |
| 20260506000018 | 17 | 13 | 14.5 | 30.6 | 0.00 | 0.08 | 0.08 | 55 | 999.9 |
| 20260505233015 | 17 | 1 | 14.5 | 30.6 | 0.00 | 0.08 | 0.08 | 56 | 1000.0 |
| 20260505230016 | 17 | 359 | 16.1 | 37.0 | 0.00 | 0.08 | 0.08 | 58 | 1000.1 |
| 20260505223016 | 16 | 337 | 16.1 | 41.8 | 0.00 | 0.08 | 0.08 | 60 | 1000.3 |
| 20260505220016 | 17 | 336 | 20.9 | 41.8 | 0.00 | 0.08 | 0.08 | 58 | 1000.5 |
| 20260505213035 | 18 | 356 | 11.3 | 32.2 | 0.00 | 0.08 | 0.08 | 56 | 1000.0 |
| 20260505210015 | 18 | 333 | 16.1 | 37.0 | 0.00 | 0.08 | 0.08 | 55 | 1000.3 |
| 20260505203018 | 17 | 320 | 19.3 | 37.0 | 0.00 | 0.08 | 0.08 | 59 | 1000.8 |
| 20260505200015 | 17 | 342 | 14.5 | 33.8 | 0.05 | 0.05 | 0.05 | 66 | 1000.8 |
| 20260505193015 | 17 | 339 | 9.7 | 25.7 | 0.05 | 0.05 | 0.05 | 58 | 1001.1 |
| 20260505190036 | 18 | 107 | 12.9 | 27.4 | 0.00 | 0.00 | 0.00 | 57 | 1001.3 |
| 20260505183015 | 16 | 123 | 14.5 | 27.4 | 0.00 | 0.00 | 0.00 | 62 | 1001.7 |
| 20260505180015 | 15 | 122 | 6.4 | 19.3 | 0.00 | 0.00 | 0.00 | 67 | 1002.1 |
| 20260505173015 | 14 | 7 | 6.4 | 17.7 | 0.00 | 0.00 | 0.00 | 72 | 1002.1 |
| 20260505170017 | 13 | 133 | 1.6 | 12.9 | 0.00 | 0.00 | 0.00 | 74 | 1002.2 |
| 20260505163017 | 13 | 202 | 4.8 | 14.5 | 0.00 | 0.00 | 0.00 | 72 | 1002.2 |
| 20260505153037 | 15 | 195 | 1.6 | 11.3 | 0.00 | 0.00 | 0.00 | 58 | 1002.5 |